• în Republica Moldova
  • Lista ţărilor
  • Pe 7 zile
  • Temperatura apei
  • Hartă satelitară
  • Meteo pe hartă
  • Widget-uri
  • user-avatar
    Intrare

    Meteo pe oră la Barra

    Astăzi, 17 Iulie, Marţi

    Timp Temperatura Precipitaţii Vânt Presiune Umiditate
    00:00 +18°C° 0 mm 1 m/s 750 mmHg 90%
    01:00 +17°C° 0 mm 2 m/s 750 mmHg 89%
    02:00 +17°C° 0 mm 2 m/s 750 mmHg 84%
    03:00 +17°C° 0 mm 2 m/s 750 mmHg 80%
    04:00 +16°C° 0 mm 2 m/s 750 mmHg 78%
    05:00 +16°C° 0 mm 2 m/s 750 mmHg 74%
    06:00 +16°C° 0 mm 2 m/s 750 mmHg 70%
    07:00 +16°C° 0 mm 2 m/s 751 mmHg 66%
    08:00 +18°C° 0 mm 2 m/s 751 mmHg 59%
    09:00 +21°C° 0 mm 3 m/s 751 mmHg 52%
    10:00 +26°C° 0 mm 2 m/s 751 mmHg 40%
    11:00 +26°C° 0 mm 3 m/s 751 mmHg 41%
    12:00 +27°C° 0 mm 3 m/s 751 mmHg 41%
    13:00 +27°C° 0 mm 3 m/s 750 mmHg 41%
    14:00 +27°C° 0 mm 3 m/s 750 mmHg 46%
    15:00 +26°C° 0 mm 3 m/s 750 mmHg 51%
    16:00 +25°C° 0 mm 3 m/s 750 mmHg 56%
    17:00 +24°C° 0 mm 3 m/s 750 mmHg 67%
    18:00 +21°C° 0 mm 3 m/s 750 mmHg 78%
    19:00 +19°C° 0 mm 2 m/s 751 mmHg 89%
    20:00 +19°C° 0 mm 3 m/s 751 mmHg 90%
    21:00 +19°C° 0 mm 3 m/s 751 mmHg 91%
    22:00 +20°C° 0 mm 3 m/s 751 mmHg 92%
    23:00 +20°C° 0,1 mm 3 m/s 751 mmHg 92%

    Mâine, 18 Iulie, Miercuri

    Timp Temperatura Precipitaţii Vânt Presiune Umiditate
    00:00 +20°C° 0,1 mm 3 m/s 751 mmHg 92%
    01:00 +20°C° 0,1 mm 3 m/s 751 mmHg 92%
    02:00 +20°C° 0,1 mm 3 m/s 751 mmHg 93%
    03:00 +20°C° 0,1 mm 3 m/s 751 mmHg 93%
    04:00 +20°C° 0,1 mm 3 m/s 751 mmHg 94%
    05:00 +20°C° 0,2 mm 3 m/s 751 mmHg 94%
    06:00 +20°C° 0,2 mm 4 m/s 751 mmHg 95%
    07:00 +20°C° 0,2 mm 4 m/s 751 mmHg 96%
    08:00 +20°C° 0,2 mm 4 m/s 752 mmHg 94%
    09:00 +21°C° 0,2 mm 4 m/s 752 mmHg 92%
    10:00 +21°C° 0,2 mm 4 m/s 752 mmHg 91%
    11:00 +21°C° 0,2 mm 4 m/s 752 mmHg 90%
    12:00 +21°C° 0,2 mm 4 m/s 752 mmHg 90%
    13:00 +21°C° 0,2 mm 4 m/s 751 mmHg 89%
    14:00 +21°C° 0,1 mm 4 m/s 751 mmHg 88%
    15:00 +21°C° 0,1 mm 4 m/s 751 mmHg 88%
    16:00 +21°C° 0,1 mm 4 m/s 750 mmHg 87%
    17:00 +21°C° 0,1 mm 4 m/s 751 mmHg 89%
    18:00 +20°C° 0,1 mm 4 m/s 751 mmHg 92%
    19:00 +19°C° 0,1 mm 4 m/s 751 mmHg 94%
    20:00 +19°C° 0,1 mm 4 m/s 752 mmHg 94%
    21:00 +19°C° 0,1 mm 4 m/s 752 mmHg 94%
    22:00 +19°C° 0,1 mm 4 m/s 753 mmHg 94%
    23:00 +19°C° 0,1 mm 4 m/s 752 mmHg 95%

    Poimâine, 19 Iulie, Joi

    Timp Temperatura Precipitaţii Vânt Presiune Umiditate
    00:00 +19°C° 0,1 mm 4 m/s 752 mmHg 95%
    01:00 +18°C° 0,1 mm 3 m/s 752 mmHg 95%
    02:00 +18°C° 0,1 mm 3 m/s 752 mmHg 95%
    03:00 +18°C° 0,1 mm 3 m/s 751 mmHg 95%
    04:00 +18°C° 0,1 mm 3 m/s 751 mmHg 95%
    05:00 +18°C° 0 mm 3 m/s 751 mmHg 95%
    06:00 +18°C° 0 mm 3 m/s 752 mmHg 95%
    07:00 +18°C° 0 mm 3 m/s 752 mmHg 95%
    08:00 +19°C° 0 mm 3 m/s 752 mmHg 88%
    09:00 +21°C° 0 mm 3 m/s 752 mmHg 82%
    10:00 +24°C° 0 mm 3 m/s 753 mmHg 75%
    11:00 +24°C° 0 mm 3 m/s 752 mmHg 71%
    12:00 +25°C° 0 mm 3 m/s 752 mmHg 67%
    13:00 +26°C° 0 mm 3 m/s 751 mmHg 63%
    14:00 +25°C° 0 mm 3 m/s 751 mmHg 64%
    15:00 +25°C° 0 mm 3 m/s 750 mmHg 66%
    16:00 +25°C° 0 mm 3 m/s 750 mmHg 67%
    17:00 +22°C° 0 mm 3 m/s 750 mmHg 75%
    18:00 +21°C° 0 mm 2 m/s 750 mmHg 83%
    19:00 +19°C° 0 mm 2 m/s 751 mmHg 90%
    20:00 +19°C° 0 mm 2 m/s 751 mmHg 92%
    21:00 +19°C° 0 mm 2 m/s 751 mmHg 93%
    22:00 +18°C° 0 mm 2 m/s 752 mmHg 94%
    23:00 +18°C° 0 mm 2 m/s 752 mmHg 95%

    20 Iulie, Vineri

    Timp Temperatura Precipitaţii Vânt Presiune Umiditate
    00:00 +19°C° 0 mm 1 m/s 751 mmHg 96%
    01:00 +19°C° 0 mm 1 m/s 751 mmHg 96%
    02:00 +19°C° 0 mm 1 m/s 751 mmHg 96%
    03:00 +19°C° 0 mm 1 m/s 751 mmHg 96%
    04:00 +19°C° 0 mm 1 m/s 751 mmHg 96%
    05:00 +19°C° 0 mm 1 m/s 751 mmHg 96%
    06:00 +19°C° 0 mm 1 m/s 751 mmHg 96%
    07:00 +19°C° 0 mm 1 m/s 751 mmHg 96%
    08:00 +22°C° 0 mm 1 m/s 751 mmHg 86%
    09:00 +24°C° 0 mm 1 m/s 752 mmHg 75%
    10:00 +27°C° 0 mm 1 m/s 752 mmHg 65%
    11:00 +28°C° 0 mm 1 m/s 751 mmHg 60%
    12:00 +29°C° 0 mm 1 m/s 750 mmHg 56%
    13:00 +30°C° 0 mm 1 m/s 750 mmHg 52%
    14:00 +29°C° 0 mm 2 m/s 750 mmHg 56%
    15:00 +28°C° 0 mm 2 m/s 749 mmHg 59%
    16:00 +27°C° 0 mm 2 m/s 749 mmHg 63%
    17:00 +26°C° 0 mm 2 m/s 749 mmHg 72%
    18:00 +24°C° 0 mm 2 m/s 750 mmHg 80%
    19:00 +22°C° 0 mm 1 m/s 750 mmHg 88%
    20:00 +22°C° 0 mm 1 m/s 750 mmHg 88%
    21:00 +22°C° 0 mm 1 m/s 751 mmHg 88%
    22:00 +22°C° 0 mm 1 m/s 752 mmHg 88%
    23:00 +22°C° 0 mm 1 m/s 752 mmHg 85%

    21 Iulie, Sâmbătă

    Timp Temperatura Precipitaţii Vânt Presiune Umiditate
    00:00 +20°C° 0 mm 2 m/s 751 mmHg 82%
    01:00 +20°C° 0 mm 2 m/s 751 mmHg 79%
    02:00 +19°C° 0 mm 3 m/s 751 mmHg 71%
    03:00 +18°C° 0 mm 3 m/s 751 mmHg 62%
    04:00 +17°C° 0 mm 4 m/s 751 mmHg 53%
    05:00 +17°C° 0 mm 4 m/s 752 mmHg 50%
    06:00 +15°C° 0 mm 4 m/s 752 mmHg 47%
    07:00 +14°C° 0 mm 4 m/s 752 mmHg 45%
    08:00 +18°C° 0 mm 4 m/s 753 mmHg 40%
    09:00 +20°C° 0 mm 4 m/s 753 mmHg 35%
    10:00 +23°C° 0 mm 4 m/s 753 mmHg 30%
    11:00 +25°C° 0 mm 4 m/s 752 mmHg 29%
    12:00 +26°C° 0 mm 4 m/s 752 mmHg 28%
    13:00 +28°C° 0 mm 3 m/s 751 mmHg 27%
    14:00 +27°C° 0 mm 4 m/s 751 mmHg 28%
    15:00 +27°C° 0 mm 4 m/s 751 mmHg 30%
    16:00 +27°C° 0 mm 4 m/s 750 mmHg 31%
    17:00 +24°C° 0 mm 3 m/s 751 mmHg 45%
    18:00 +21°C° 0 mm 3 m/s 751 mmHg 58%
    19:00 +18°C° 0 mm 3 m/s 751 mmHg 71%
    20:00 +18°C° 0 mm 2 m/s 752 mmHg 77%
    21:00 +17°C° 0 mm 2 m/s 752 mmHg 83%
    22:00 +17°C° 0 mm 2 m/s 752 mmHg 89%
    23:00 +17°C° 0,1 mm 3 m/s 752 mmHg 90%

    22 Iulie, Duminică

    Timp Temperatura Precipitaţii Vânt Presiune Umiditate
    00:00 +17°C° 0,1 mm 3 m/s 752 mmHg 92%
    01:00 +18°C° 0,1 mm 3 m/s 752 mmHg 94%
    02:00 +18°C° 0,1 mm 3 m/s 752 mmHg 93%
    03:00 +18°C° 0,1 mm 3 m/s 752 mmHg 93%
    04:00 +19°C° 0,1 mm 4 m/s 751 mmHg 92%
    05:00 +19°C° 0,1 mm 4 m/s 752 mmHg 93%
    06:00 +19°C° 0,1 mm 4 m/s 752 mmHg 93%
    07:00 +18°C° 0,1 mm 4 m/s 753 mmHg 94%
    08:00 +19°C° 0,1 mm 4 m/s 753 mmHg 90%
    09:00 +20°C° 0,1 mm 4 m/s 753 mmHg 85%
    10:00 +21°C° 0,1 mm 4 m/s 753 mmHg 81%
    11:00 +22°C° 0,1 mm 4 m/s 753 mmHg 77%
    12:00 +22°C° 0,1 mm 4 m/s 752 mmHg 74%
    13:00 +23°C° 0,1 mm 4 m/s 751 mmHg 70%
    14:00 +23°C° 0 mm 4 m/s 751 mmHg 69%
    15:00 +23°C° 0 mm 4 m/s 751 mmHg 68%
    16:00 +24°C° 0 mm 3 m/s 750 mmHg 68%
    17:00 +21°C° 0 mm 3 m/s 751 mmHg 76%
    18:00 +20°C° 0 mm 3 m/s 751 mmHg 84%
    19:00 +18°C° 0 mm 2 m/s 751 mmHg 92%
    20:00 +18°C° 0 mm 2 m/s 752 mmHg 93%
    21:00 +17°C° 0 mm 2 m/s 752 mmHg 94%
    22:00 +18°C° 0 mm 1 m/s 752 mmHg 95%
    23:00 +18°C° 0 mm 1 m/s 752 mmHg 95%
    Arată mai mult